CTV882 WIII-WIMM

Flight info

Callsign CTV882
Flight time 1h 50m
Altitude 34000
Route GOMEL T10 AKPER
Aircraft A320/M-SDE3FGHIRWY/LB1

Departure

Time 2026-04-22 13:18
Airport Soekarno-Hatta International Airport (WIII)

Arrival

Time 2026-04-22 15:09
Airport Kualanamu International Airport (WIMM)
Time Latitude Longitude Altitude Speed Heading
2026-04-22 12:50 -6.13266 106.65233 47 ft 0 kts 355°
2026-04-22 13:04 -6.13277 106.65234 48 ft 2 kts 355°
2026-04-22 13:04 -6.13296 106.65234 48 ft 2 kts 356°
2026-04-22 13:04 -6.13305 106.65235 48 ft 2 kts 355°
2026-04-22 13:04 -6.13323 106.65237 48 ft 2 kts 356°
2026-04-22 13:05 -6.13336 106.65239 48 ft 1 kts 314°
2026-04-22 13:05 -6.13340 106.65250 48 ft 1 kts 256°
2026-04-22 13:05 -6.13333 106.65263 48 ft 2 kts 248°
2026-04-22 13:05 -6.13330 106.65272 48 ft 0 kts 251°
2026-04-22 13:06 -6.13330 106.65274 48 ft 0 kts 250°
2026-04-22 13:09 -6.13330 106.65273 47 ft 0 kts 250°
2026-04-22 13:09 -6.13334 106.65263 47 ft 2 kts 250°
2026-04-22 13:09 -6.13339 106.65249 47 ft 4 kts 250°
2026-04-22 13:09 -6.13358 106.65221 47 ft 6 kts 214°
2026-04-22 13:10 -6.13403 106.65223 47 ft 8 kts 158°
2026-04-22 13:10 -6.13461 106.65246 47 ft 10 kts 158°
2026-04-22 13:10 -6.13530 106.65274 47 ft 11 kts 158°
2026-04-22 13:10 -6.13579 106.65328 47 ft 10 kts 85°
2026-04-22 13:11 -6.13554 106.65395 47 ft 11 kts 68°
2026-04-22 13:11 -6.13525 106.65466 47 ft 12 kts 68°
2026-04-22 13:11 -6.13493 106.65547 47 ft 13 kts 68°
2026-04-22 13:11 -6.13457 106.65635 47 ft 14 kts 68°
2026-04-22 13:12 -6.13405 106.65767 47 ft 15 kts 68°
2026-04-22 13:12 -6.13366 106.65863 47 ft 15 kts 68°
2026-04-22 13:12 -6.13341 106.65926 47 ft 15 kts 68°
2026-04-22 13:12 -6.13300 106.66028 47 ft 16 kts 68°
2026-04-22 13:13 -6.13260 106.66128 47 ft 16 kts 68°
2026-04-22 13:13 -6.13218 106.66233 47 ft 16 kts 68°
2026-04-22 13:13 -6.13174 106.66344 47 ft 17 kts 68°
2026-04-22 13:13 -6.13122 106.66474 47 ft 16 kts 68°
2026-04-22 13:14 -6.13069 106.66608 47 ft 16 kts 68°
2026-04-22 13:14 -6.13029 106.66705 47 ft 16 kts 68°
2026-04-22 13:14 -6.12990 106.66804 47 ft 15 kts 68°
2026-04-22 13:14 -6.12946 106.66914 47 ft 14 kts 68°
2026-04-22 13:15 -6.12906 106.67014 47 ft 14 kts 68°
2026-04-22 13:15 -6.12866 106.67114 47 ft 13 kts 68°
2026-04-22 13:15 -6.12826 106.67214 47 ft 13 kts 68°
2026-04-22 13:15 -6.12791 106.67303 47 ft 9 kts 68°
2026-04-22 13:16 -6.12795 106.67365 47 ft 7 kts 133°
2026-04-22 13:16 -6.12849 106.67394 47 ft 8 kts 157°
2026-04-22 13:16 -6.12908 106.67418 47 ft 8 kts 158°
2026-04-22 13:16 -6.12982 106.67413 47 ft 9 kts 206°
2026-04-22 13:17 -6.13038 106.67390 47 ft 7 kts 216°
2026-04-22 13:17 -6.13065 106.67345 47 ft 7 kts 248°
2026-04-22 13:17 -6.13136 106.67168 48 ft 60 kts 248°
2026-04-22 13:17 -6.13368 106.66585 48 ft 121 kts 248°
2026-04-22 13:18 -6.13748 106.65637 54 ft 170 kts 248°
2026-04-22 13:18 -6.14209 106.64513 547 ft 173 kts 247°
2026-04-22 13:18 -6.14698 106.63413 1188 ft 173 kts 245°
2026-04-22 13:18 -6.15121 106.62419 1736 ft 174 kts 248°
2026-04-22 13:19 -6.15538 106.61352 2109 ft 184 kts 249°
2026-04-22 13:19 -6.16000 106.60156 2416 ft 199 kts 249°
2026-04-22 13:19 -6.16493 106.58897 2725 ft 215 kts 248°
2026-04-22 13:19 -6.17058 106.57463 2967 ft 238 kts 248°
2026-04-22 13:20 -6.17541 106.55837 3370 ft 255 kts 268°
2026-04-22 13:20 -6.17134 106.54080 3795 ft 270 kts 303°
2026-04-22 13:20 -6.15259 106.52417 4821 ft 273 kts 329°
2026-04-22 13:20 -6.14185 106.51781 5341 ft 275 kts 330°
2026-04-22 13:21 -6.12526 106.50799 6109 ft 279 kts 329°
2026-04-22 13:21 -6.10879 106.49761 6897 ft 282 kts 327°
2026-04-22 13:21 -6.09314 106.48721 7653 ft 285 kts 326°
2026-04-22 13:21 -6.07627 106.47560 8462 ft 288 kts 325°
2026-04-22 13:22 -6.05982 106.46401 9241 ft 291 kts 325°
2026-04-22 13:22 -6.04359 106.45242 9992 ft 295 kts 324°
2026-04-22 13:22 -6.02682 106.44037 10628 ft 303 kts 324°
2026-04-22 13:22 -6.00927 106.42771 10982 ft 320 kts 324°
2026-04-22 13:23 -5.99052 106.41415 11307 ft 338 kts 324°
2026-04-22 13:23 -5.97080 106.39987 11616 ft 356 kts 324°
2026-04-22 13:23 -5.94330 106.37995 11996 ft 377 kts 324°
2026-04-22 13:23 -5.92915 106.36969 12236 ft 385 kts 324°
2026-04-22 13:24 -5.90733 106.35387 12835 ft 389 kts 324°
2026-04-22 13:24 -5.88533 106.33788 13484 ft 392 kts 324°
2026-04-22 13:24 -5.86338 106.32191 14094 ft 395 kts 324°
2026-04-22 13:24 -5.84092 106.30557 14699 ft 399 kts 324°
2026-04-22 13:25 -5.81865 106.28938 15285 ft 402 kts 324°
2026-04-22 13:25 -5.79594 106.27289 15867 ft 405 kts 324°
2026-04-22 13:25 -5.77285 106.25613 16445 ft 409 kts 324°
2026-04-22 13:25 -5.75000 106.23956 17002 ft 412 kts 325°
2026-04-22 13:26 -5.72680 106.22274 17554 ft 415 kts 325°
2026-04-22 13:26 -5.70598 106.20764 18038 ft 418 kts 325°
2026-04-22 13:26 -5.67286 106.18365 18776 ft 422 kts 325°
2026-04-22 13:26 -5.65723 106.17231 19110 ft 425 kts 325°
2026-04-22 13:27 -5.63303 106.15478 19616 ft 428 kts 325°
2026-04-22 13:27 -5.60916 106.13748 20100 ft 431 kts 325°
2026-04-22 13:27 -5.58479 106.11983 20579 ft 434 kts 325°
2026-04-22 13:27 -5.56034 106.10210 21045 ft 437 kts 325°
2026-04-22 13:28 -5.53562 106.08420 21500 ft 440 kts 325°
2026-04-22 13:28 -5.51052 106.06600 21947 ft 442 kts 325°
2026-04-22 13:28 -5.48580 106.04810 22374 ft 445 kts 325°
2026-04-22 13:28 -5.46042 106.02971 22798 ft 448 kts 325°
2026-04-22 13:29 -5.43525 106.01148 23208 ft 451 kts 325°
2026-04-22 13:29 -5.40981 105.99306 23607 ft 453 kts 325°
2026-04-22 13:29 -5.38411 105.97444 23989 ft 456 kts 325°
2026-04-22 13:29 -5.35836 105.95579 24360 ft 458 kts 325°
2026-04-22 13:30 -5.33274 105.93725 24714 ft 461 kts 325°
2026-04-22 13:30 -5.30694 105.91858 25058 ft 463 kts 325°
2026-04-22 13:30 -5.28087 105.89971 25391 ft 465 kts 325°
2026-04-22 13:30 -5.25457 105.88067 25708 ft 468 kts 325°
2026-04-22 13:31 -5.22800 105.86145 26012 ft 470 kts 325°
2026-04-22 13:31 -5.20177 105.84247 26296 ft 472 kts 325°
2026-04-22 13:31 -5.17520 105.82330 26567 ft 474 kts 326°
2026-04-22 13:31 -5.14828 105.80412 26847 ft 475 kts 326°
2026-04-22 13:32 -5.12144 105.78508 27202 ft 474 kts 326°
2026-04-22 13:32 -5.09454 105.76599 27582 ft 473 kts 326°
2026-04-22 13:32 -5.06793 105.74712 27923 ft 473 kts 326°
2026-04-22 13:32 -5.04106 105.72803 28243 ft 473 kts 326°
2026-04-22 13:33 -5.01416 105.70892 28564 ft 473 kts 326°
2026-04-22 13:33 -4.98763 105.69006 28889 ft 473 kts 325°
2026-04-22 13:33 -4.96077 105.67097 29223 ft 472 kts 325°
2026-04-22 13:33 -4.93397 105.65191 29559 ft 472 kts 325°
2026-04-22 13:34 -4.90756 105.63312 29894 ft 471 kts 325°
2026-04-22 13:34 -4.88059 105.61397 30234 ft 470 kts 326°
2026-04-22 13:34 -4.85384 105.59506 30565 ft 469 kts 326°
2026-04-22 13:34 -4.82759 105.57649 30886 ft 468 kts 326°
2026-04-22 13:35 -4.80080 105.55750 31210 ft 468 kts 326°
2026-04-22 13:35 -4.77455 105.53889 31519 ft 467 kts 326°
2026-04-22 13:35 -4.74818 105.52016 31818 ft 466 kts 326°
2026-04-22 13:35 -4.72173 105.50138 32110 ft 465 kts 326°
2026-04-22 13:36 -4.69528 105.48259 32363 ft 465 kts 326°
2026-04-22 13:36 -4.66887 105.46384 32576 ft 466 kts 326°
2026-04-22 13:36 -4.64257 105.44516 32775 ft 467 kts 326°
2026-04-22 13:36 -4.61603 105.42632 32976 ft 467 kts 326°
2026-04-22 13:37 -4.58965 105.40758 33170 ft 468 kts 326°
2026-04-22 13:37 -4.56338 105.38892 33355 ft 468 kts 326°
2026-04-22 13:37 -4.52777 105.36364 33593 ft 468 kts 326°
2026-04-22 13:37 -4.51009 105.35108 33705 ft 469 kts 326°
2026-04-22 13:38 -4.48351 105.33213 33864 ft 469 kts 326°
2026-04-22 13:38 -4.43059 105.29429 33991 ft 474 kts 326°
2026-04-22 13:38 -4.40337 105.27491 33997 ft 477 kts 326°
2026-04-22 13:39 -4.35000 105.23700 34001 ft 482 kts 326°
2026-04-22 13:39 -4.29532 105.19820 34002 ft 482 kts 326°
2026-04-22 13:40 -4.24078 105.15952 34002 ft 482 kts 326°
2026-04-22 13:40 -4.18615 105.12078 34002 ft 482 kts 326°
2026-04-22 13:41 -4.13148 105.08199 34001 ft 482 kts 326°
2026-04-22 13:41 -4.07947 105.04036 34001 ft 482 kts 319°
2026-04-22 13:42 -4.03029 104.99463 34002 ft 482 kts 318°
2026-04-22 13:42 -3.98135 104.94865 34002 ft 482 kts 318°
2026-04-22 13:43 -3.93260 104.90294 34002 ft 481 kts 318°
2026-04-22 13:43 -3.88864 104.86182 34002 ft 480 kts 318°
2026-04-22 13:44 -3.83999 104.81658 34002 ft 480 kts 318°
2026-04-22 13:44 -3.79108 104.77102 34002 ft 480 kts 318°
2026-04-22 13:45 -3.74233 104.72550 34002 ft 480 kts 318°
2026-04-22 13:45 -3.69379 104.68015 34002 ft 480 kts 318°
2026-04-22 13:46 -3.64509 104.63463 34002 ft 480 kts 318°
2026-04-22 13:46 -3.59628 104.58901 34002 ft 480 kts 318°
2026-04-22 13:47 -3.54777 104.54366 34002 ft 480 kts 318°
2026-04-22 13:47 -3.49895 104.49805 34002 ft 480 kts 318°
2026-04-22 13:48 -3.45057 104.45285 34002 ft 480 kts 318°
2026-04-22 13:48 -3.40185 104.40734 34002 ft 480 kts 318°
2026-04-22 13:49 -3.35295 104.36166 34002 ft 480 kts 318°
2026-04-22 13:49 -3.30436 104.31611 34002 ft 480 kts 318°
2026-04-22 13:50 -3.25577 104.27047 34002 ft 480 kts 318°
2026-04-22 13:50 -3.20723 104.22504 34002 ft 480 kts 318°
2026-04-22 13:51 -3.15850 104.17952 34002 ft 480 kts 318°
2026-04-22 13:51 -3.10991 104.13416 34002 ft 480 kts 318°
2026-04-22 13:52 -3.06121 104.08871 34002 ft 480 kts 318°
2026-04-22 13:52 -3.01244 104.04320 34002 ft 481 kts 318°
2026-04-22 13:53 -2.96357 103.99762 34002 ft 481 kts 318°
2026-04-22 13:53 -2.91485 103.95217 34002 ft 482 kts 318°
2026-04-22 13:54 -2.86643 103.90715 34000 ft 483 kts 318°
2026-04-22 13:54 -2.81717 103.86145 33952 ft 483 kts 318°
2026-04-22 13:55 -2.76814 103.81583 33915 ft 483 kts 318°
2026-04-22 13:55 -2.71913 103.77014 33897 ft 484 kts 318°
2026-04-22 13:56 -2.67005 103.72440 33890 ft 484 kts 318°
2026-04-22 13:56 -2.62076 103.67844 33888 ft 484 kts 318°
2026-04-22 13:57 -2.57196 103.63295 33887 ft 484 kts 318°
2026-04-22 13:57 -2.52270 103.58703 33887 ft 484 kts 318°
2026-04-22 13:58 -2.47393 103.54157 33887 ft 484 kts 318°
2026-04-22 13:58 -2.42472 103.49569 33887 ft 484 kts 318°
2026-04-22 13:59 -2.37554 103.44983 33887 ft 484 kts 318°
2026-04-22 13:59 -2.32650 103.40414 33887 ft 484 kts 318°
2026-04-22 14:00 -2.27739 103.35832 33887 ft 484 kts 318°
2026-04-22 14:00 -2.22833 103.31231 33887 ft 484 kts 318°
2026-04-22 14:01 -2.17972 103.26666 33887 ft 484 kts 318°
2026-04-22 14:01 -2.13068 103.22076 33887 ft 484 kts 318°
2026-04-22 14:02 -2.08166 103.17497 33887 ft 484 kts 318°
2026-04-22 14:02 -2.03261 103.12917 33887 ft 484 kts 318°
2026-04-22 14:03 -1.98344 103.08326 33887 ft 485 kts 318°
2026-04-22 14:03 -1.93430 103.03738 33887 ft 485 kts 318°
2026-04-22 14:04 -1.88499 102.99139 33887 ft 485 kts 318°
2026-04-22 14:04 -1.83580 102.94576 33887 ft 485 kts 317°
2026-04-22 14:05 -1.78645 102.89982 33887 ft 485 kts 317°
2026-04-22 14:06 -1.71265 102.83095 33887 ft 485 kts 317°
2026-04-22 14:06 -1.66380 102.78534 33887 ft 485 kts 317°
2026-04-22 14:07 -1.61431 102.73913 33887 ft 485 kts 317°
2026-04-22 14:07 -1.56526 102.69335 33886 ft 485 kts 317°
2026-04-22 14:08 -1.51620 102.64758 33875 ft 485 kts 317°
2026-04-22 14:08 -1.46707 102.60173 33860 ft 485 kts 317°
2026-04-22 14:09 -1.41776 102.55569 33846 ft 486 kts 317°
2026-04-22 14:09 -1.36840 102.50960 33838 ft 486 kts 317°
2026-04-22 14:10 -1.31930 102.46375 33834 ft 486 kts 317°
2026-04-22 14:10 -1.27025 102.41794 33833 ft 486 kts 317°
2026-04-22 14:11 -1.22100 102.37194 33832 ft 486 kts 317°
2026-04-22 14:11 -1.17161 102.32573 33832 ft 486 kts 317°
2026-04-22 14:12 -1.12243 102.27950 33832 ft 486 kts 317°
2026-04-22 14:12 -1.07323 102.23341 33832 ft 486 kts 317°
2026-04-22 14:13 -1.02416 102.18755 33832 ft 486 kts 317°
2026-04-22 14:13 -0.97499 102.14162 33832 ft 486 kts 318°
2026-04-22 14:14 -0.92557 102.09549 33832 ft 486 kts 318°
2026-04-22 14:14 -0.87658 102.04985 33832 ft 486 kts 318°
2026-04-22 14:15 -0.82707 102.00391 33832 ft 486 kts 318°
2026-04-22 14:15 -0.77781 101.95808 33832 ft 486 kts 318°
2026-04-22 14:16 -0.72857 101.91217 33832 ft 486 kts 318°
2026-04-22 14:16 -0.67937 101.86626 33832 ft 486 kts 318°
2026-04-22 14:17 -0.62994 101.82013 33832 ft 486 kts 318°
2026-04-22 14:17 -0.58069 101.77417 33832 ft 486 kts 318°
2026-04-22 14:18 -0.53150 101.72826 33832 ft 486 kts 318°
2026-04-22 14:18 -0.48224 101.68229 33832 ft 486 kts 318°
2026-04-22 14:19 -0.43305 101.63639 33832 ft 486 kts 318°
2026-04-22 14:19 -0.38398 101.59060 33832 ft 486 kts 318°
2026-04-22 14:20 -0.31012 101.52167 33832 ft 486 kts 318°
2026-04-22 14:20 -0.26066 101.47552 33832 ft 486 kts 318°
2026-04-22 14:21 -0.18701 101.40678 33832 ft 486 kts 318°
2026-04-22 14:22 -0.11319 101.33787 33831 ft 486 kts 317°
2026-04-22 14:23 -0.03954 101.26872 33832 ft 486 kts 317°
2026-04-22 14:23 0.00986 101.22249 33832 ft 486 kts 317°
2026-04-22 14:24 0.05905 101.17656 33832 ft 486 kts 318°
2026-04-22 14:24 0.10813 101.13076 33832 ft 486 kts 318°
2026-04-22 14:25 0.15776 101.08472 33832 ft 486 kts 318°
2026-04-22 14:25 0.20701 101.03895 33832 ft 486 kts 318°
2026-04-22 14:26 0.25629 100.99300 33833 ft 485 kts 318°
2026-04-22 14:26 0.30514 100.94741 33833 ft 483 kts 318°
2026-04-22 14:27 0.35394 100.90189 33833 ft 480 kts 318°
2026-04-22 14:27 0.40268 100.85641 33833 ft 477 kts 318°
2026-04-22 14:28 0.45063 100.81168 33833 ft 475 kts 318°
2026-04-22 14:28 0.49882 100.76672 33832 ft 473 kts 318°
2026-04-22 14:29 0.54682 100.72193 33832 ft 473 kts 318°
2026-04-22 14:29 0.59475 100.67720 33832 ft 473 kts 318°
2026-04-22 14:30 0.64255 100.63258 33832 ft 473 kts 318°
2026-04-22 14:30 0.69044 100.58789 33832 ft 473 kts 318°
2026-04-22 14:31 0.73832 100.54321 33832 ft 473 kts 318°
2026-04-22 14:31 0.78610 100.49860 33832 ft 473 kts 318°
2026-04-22 14:32 0.83404 100.45385 33832 ft 473 kts 318°
2026-04-22 14:32 0.88201 100.40907 33832 ft 473 kts 318°
2026-04-22 14:33 0.92981 100.36446 33832 ft 473 kts 318°
2026-04-22 14:33 0.97745 100.31984 33831 ft 473 kts 318°
2026-04-22 14:34 1.02565 100.27457 33831 ft 475 kts 318°
2026-04-22 14:34 1.07364 100.22968 33832 ft 477 kts 318°
2026-04-22 14:35 1.11689 100.18931 33832 ft 478 kts 318°
2026-04-22 14:35 1.16453 100.14509 33835 ft 479 kts 318°
2026-04-22 14:36 1.21283 100.10014 33854 ft 479 kts 318°
2026-04-22 14:36 1.26166 100.05458 33895 ft 479 kts 318°
2026-04-22 14:37 1.30991 100.00953 33940 ft 479 kts 318°
2026-04-22 14:37 1.35838 99.96427 33974 ft 478 kts 318°
2026-04-22 14:38 1.40710 99.91876 33991 ft 478 kts 318°
2026-04-22 14:38 1.45545 99.87360 33998 ft 478 kts 318°
2026-04-22 14:39 1.50372 99.82851 34001 ft 478 kts 318°
2026-04-22 14:39 1.55208 99.78334 34002 ft 478 kts 318°
2026-04-22 14:40 1.62476 99.71543 34002 ft 478 kts 318°
2026-04-22 14:40 1.67295 99.67040 34002 ft 478 kts 318°
2026-04-22 14:41 1.72165 99.62510 34001 ft 478 kts 319°
2026-04-22 14:41 1.77280 99.58379 34001 ft 477 kts 325°
2026-04-22 14:42 1.82597 99.54945 34001 ft 476 kts 331°
2026-04-22 14:42 1.88400 99.51881 34002 ft 475 kts 334°
2026-04-22 14:43 1.94238 99.48895 33965 ft 474 kts 334°
2026-04-22 14:43 1.97144 99.47403 33717 ft 462 kts 334°
2026-04-22 14:43 1.99966 99.45952 33267 ft 455 kts 334°
2026-04-22 14:44 2.02747 99.44520 32696 ft 454 kts 334°
2026-04-22 14:44 2.05541 99.43079 32090 ft 455 kts 334°
2026-04-22 14:44 2.08325 99.41645 31468 ft 455 kts 334°
2026-04-22 14:44 2.10433 99.40559 30998 ft 456 kts 334°
2026-04-22 14:45 2.13124 99.39177 30397 ft 454 kts 334°
2026-04-22 14:45 2.15908 99.37750 29742 ft 452 kts 334°
2026-04-22 14:45 2.18580 99.36377 29027 ft 451 kts 334°
2026-04-22 14:45 2.21270 99.34992 28275 ft 451 kts 333°
2026-04-22 14:46 2.24004 99.33574 27508 ft 451 kts 333°
2026-04-22 14:46 2.26761 99.32137 26734 ft 450 kts 333°
2026-04-22 14:46 2.29525 99.30700 25956 ft 449 kts 333°
2026-04-22 14:46 2.32240 99.29293 25191 ft 448 kts 333°
2026-04-22 14:47 2.34986 99.27874 24513 ft 444 kts 333°
2026-04-22 14:47 2.37646 99.26502 24081 ft 435 kts 333°
2026-04-22 14:47 2.40279 99.25145 23596 ft 429 kts 333°
2026-04-22 14:47 2.42933 99.23953 23094 ft 423 kts 339°
2026-04-22 14:48 2.45668 99.23049 22664 ft 415 kts 345°
2026-04-22 14:48 2.48425 99.22411 22221 ft 409 kts 348°
2026-04-22 14:48 2.51133 99.21874 21770 ft 404 kts 348°
2026-04-22 14:48 2.53855 99.21352 21307 ft 399 kts 348°
2026-04-22 14:49 2.56579 99.20828 20838 ft 394 kts 348°
2026-04-22 14:49 2.59242 99.20311 20374 ft 390 kts 348°
2026-04-22 14:49 2.61877 99.19797 19913 ft 386 kts 348°
2026-04-22 14:49 2.64473 99.19288 19458 ft 382 kts 348°
2026-04-22 14:50 2.67079 99.18777 18998 ft 378 kts 348°
2026-04-22 14:50 2.69637 99.18275 18544 ft 375 kts 348°
2026-04-22 14:50 2.72152 99.17780 18098 ft 372 kts 347°
2026-04-22 14:50 2.74669 99.17285 17648 ft 369 kts 347°
2026-04-22 14:51 2.77170 99.16793 17199 ft 366 kts 347°
2026-04-22 14:51 2.79656 99.16305 16753 ft 363 kts 347°
2026-04-22 14:51 2.82111 99.15822 16309 ft 360 kts 347°
2026-04-22 14:51 2.84548 99.15342 15849 ft 358 kts 347°
2026-04-22 14:52 2.86990 99.14862 15388 ft 356 kts 347°
2026-04-22 14:52 2.89405 99.14387 14941 ft 354 kts 347°
2026-04-22 14:52 2.91794 99.13917 14503 ft 351 kts 347°
2026-04-22 14:52 2.94162 99.13451 14073 ft 348 kts 347°
2026-04-22 14:53 2.96530 99.12844 13610 ft 345 kts 337°
2026-04-22 14:53 2.98621 99.11750 13170 ft 340 kts 323°
2026-04-22 14:53 3.00399 99.10231 12737 ft 336 kts 315°
2026-04-22 14:53 3.02032 99.08601 12300 ft 334 kts 313°
2026-04-22 14:54 3.03640 99.06968 11861 ft 332 kts 313°
2026-04-22 14:54 3.05262 99.05324 11420 ft 330 kts 314°
2026-04-22 14:54 3.06879 99.03695 10982 ft 328 kts 314°
2026-04-22 14:54 3.08489 99.02081 10551 ft 326 kts 314°
2026-04-22 14:55 3.10073 99.00498 10236 ft 320 kts 314°
2026-04-22 14:55 3.11624 98.98962 10168 ft 305 kts 314°
2026-04-22 14:55 3.13096 98.97510 10095 ft 291 kts 314°
2026-04-22 14:55 3.14497 98.96125 10028 ft 278 kts 314°
2026-04-22 14:56 3.15999 98.94918 9938 ft 284 kts 332°
2026-04-22 14:56 3.17916 98.94421 9859 ft 290 kts 358°
2026-04-22 14:56 3.19885 98.94814 9784 ft 294 kts 23°
2026-04-22 14:56 3.21638 98.95873 9722 ft 296 kts 33°
2026-04-22 14:57 3.23304 98.97070 9648 ft 296 kts 34°
2026-04-22 14:57 3.24953 98.98292 9573 ft 295 kts 34°
2026-04-22 14:57 3.26590 98.99513 9499 ft 295 kts 34°
2026-04-22 14:57 3.28240 99.00747 9424 ft 294 kts 34°
2026-04-22 14:58 3.29883 99.01976 9349 ft 294 kts 34°
2026-04-22 14:58 3.31520 99.03201 9274 ft 293 kts 34°
2026-04-22 14:58 3.33146 99.04419 9200 ft 293 kts 34°
2026-04-22 14:58 3.34762 99.05630 9125 ft 292 kts 34°
2026-04-22 14:59 3.36387 99.06847 9051 ft 292 kts 34°
2026-04-22 14:59 3.38056 99.07973 8992 ft 289 kts 22°
2026-04-22 14:59 3.39977 99.08502 9000 ft 286 kts
2026-04-22 14:59 3.41970 99.08596 8997 ft 284 kts 355°
2026-04-22 15:00 3.43924 99.08415 8997 ft 284 kts 351°
2026-04-22 15:00 3.45881 99.08164 8976 ft 280 kts 351°
2026-04-22 15:00 3.47795 99.07906 8642 ft 279 kts 351°
2026-04-22 15:00 3.49710 99.07642 8196 ft 280 kts 351°
2026-04-22 15:01 3.51621 99.07375 7902 ft 277 kts 351°
2026-04-22 15:01 3.53530 99.07102 7599 ft 278 kts 351°
2026-04-22 15:01 3.55444 99.06827 7297 ft 277 kts 351°
2026-04-22 15:01 3.57329 99.06580 6999 ft 276 kts 354°
2026-04-22 15:02 3.59253 99.06444 6696 ft 275 kts 355°
2026-04-22 15:02 3.61149 99.06339 6397 ft 274 kts 356°
2026-04-22 15:02 3.63028 99.06234 6099 ft 273 kts 355°
2026-04-22 15:02 3.64924 99.06120 5800 ft 273 kts 355°
2026-04-22 15:03 3.66813 99.06002 5398 ft 273 kts 355°
2026-04-22 15:03 3.68706 99.05880 4996 ft 272 kts 355°
2026-04-22 15:03 3.70570 99.05759 4599 ft 272 kts 355°
2026-04-22 15:03 3.72447 99.05637 4200 ft 271 kts 356°
2026-04-22 15:04 3.74325 99.05440 3785 ft 271 kts 344°
2026-04-22 15:04 3.75940 99.04559 3387 ft 269 kts 315°
2026-04-22 15:04 3.76910 99.03014 3323 ft 255 kts 287°
2026-04-22 15:04 3.77070 99.01332 3309 ft 240 kts 260°
2026-04-22 15:05 3.76460 98.99814 3199 ft 232 kts 236°
2026-04-22 15:05 3.75439 98.98593 2930 ft 230 kts 226°
2026-04-22 15:05 3.74294 98.97488 2624 ft 230 kts 224°
2026-04-22 15:05 3.73128 98.96382 2327 ft 228 kts 224°
2026-04-22 15:06 3.72031 98.95304 2127 ft 218 kts 225°
2026-04-22 15:06 3.70977 98.94247 1788 ft 211 kts 225°
2026-04-22 15:06 3.69976 98.93240 1476 ft 199 kts 225°
2026-04-22 15:06 3.69024 98.92287 1233 ft 186 kts 225°
2026-04-22 15:07 3.68151 98.91415 985 ft 171 kts 225°
2026-04-22 15:07 3.67352 98.90618 745 ft 156 kts 225°
2026-04-22 15:07 3.66627 98.89894 536 ft 141 kts 225°
2026-04-22 15:07 3.65938 98.89206 316 ft 144 kts 225°
2026-04-22 15:08 3.65246 98.88516 188 ft 139 kts 224°
2026-04-22 15:08 3.64578 98.87856 84 ft 126 kts 224°
2026-04-22 15:08 3.64065 98.87359 84 ft 84 kts 223°
2026-04-22 15:08 3.63693 98.86983 84 ft 67 kts 225°
2026-04-22 15:09 3.63415 98.86701 84 ft 46 kts 225°
2026-04-22 15:09 3.63207 98.86494 84 ft 32 kts 220°
2026-04-22 15:09 3.63137 98.86414 84 ft 1 kts 297°